Weather in Kamyshany

Ukraine / Kherson District     46°38′12″N   32°30′16″E
temp.,
°C
wind,
m/s
gust,
m/s
humid.,
%
clouds,
%
prec.,
mm/h
press.,
hPa
HPBL,
m
7 may, fri
fri700:00+11nnw3690100 0.0 1014193
03:00+10n358576 0.0 1015110
06:00+9ne238681 0.0 101651
09:00+15ese235840 0.0 1016490
12:00+19sse344014 0.0 10161324
15:00+21ssw6739100 0.0 10141665
18:00+19s695487 0.0 1013851
21:00+15s51265100 0.0 1013417
8 may, sat
sat800:00+14s4127198 0.0 1012400
03:00+14s51381100 0.2 1011441
06:00+14ssw6148599 0.1 1010473
09:00+15wsw6983100 0.1 1011562
12:00+12nnw61087100 2.1 1013600
15:00+12nnw51090100 4.9 1014795
18:00+11n2778100 1.9 1015421
21:00+10nnw71364100 2.0 1017638
9 may, sun
sun900:00+8nnw71569100 0.0 1018867
03:00+7nnw614720 0.0 1021447
06:00+5nnw612830 0.0 1022371
09:00+10nnw68621 0.0 1024810
12:00+13nnw68425 0.0 10241798
15:00+16n683599 0.0 10252796
18:00+16n473912 0.0 10262691
21:00+10nne34585 0.0 102783
10 may, mon
mon1000:00+9nne236011 0.0 102836
03:00+8n22665 0.0 102827
06:00+7nne34715 0.0 102975
09:00+13nne46520 0.0 1029669
12:00+16n57351 0.0 10281852
15:00+17n67332 0.0 10262187
18:00+17nne68413 0.0 10252039
21:00+12ne34544 0.0 102795
11 may, tue
tue1100:00+10nnw4962100 0.0 1024196
03:00+11nnw51160100 0.0 1022382
06:00+11n61166100 0.0 1021425
09:00+15nne710606 0.0 1021654
12:00+20nne695494 0.0 10191166
15:00+18ne696241 0.0 1018971
18:00+16ne710715 0.2 1018783
21:00+13ene5107590 0.2 1018577